TimeCDT,TemperatureF,Dew PointF,Humidity,Sea Level PressureIn,VisibilityMPH,Wind Direction,Wind SpeedMPH,Gust SpeedMPH,PrecipitationIn,Events,Conditions,WindDirDegrees,DateUTC
12:12 AM,77.0,60.8,57,29.87,10.0,South,10.4,16.1,N/A,,Clear,170,2013-07-06 05:12:00
12:32 AM,77.0,60.8,57,29.87,10.0,SSE,8.1,-,N/A,,Clear,160,2013-07-06 05:32:00
12:53 AM,75.2,60.8,61,29.87,10.0,South,9.2,-,N/A,,Clear,170,2013-07-06 05:53:00
1:12 AM,75.2,60.8,61,29.87,10.0,South,10.4,-,N/A,,Clear,170,2013-07-06 06:12:00
1:32 AM,75.2,60.8,61,29.87,10.0,South,11.5,16.1,N/A,,Clear,170,2013-07-06 06:32:00
1:53 AM,75.2,59.0,57,29.87,10.0,South,10.4,16.1,N/A,,Clear,170,2013-07-06 06:53:00
2:12 AM,75.2,59.0,57,29.86,10.0,South,10.4,17.3,N/A,,Clear,170,2013-07-06 07:12:00
2:32 AM,73.4,59.0,61,29.86,10.0,South,11.5,18.4,N/A,,Clear,170,2013-07-06 07:32:00
2:53 AM,73.4,59.0,61,29.86,10.0,South,10.4,-,N/A,,Clear,170,2013-07-06 07:53:00
3:12 AM,73.4,59.0,61,29.86,10.0,South,11.5,18.4,N/A,,Clear,170,2013-07-06 08:12:00
3:32 AM,73.4,59.0,61,29.86,10.0,South,10.4,-,N/A,,Clear,170,2013-07-06 08:32:00
3:53 AM,73.4,59.0,61,29.86,10.0,South,9.2,-,N/A,,Clear,170,2013-07-06 08:53:00
4:12 AM,73.4,59.0,61,29.86,10.0,South,9.2,-,N/A,,Clear,170,2013-07-06 09:12:00
4:32 AM,71.6,59.0,64,29.86,10.0,South,6.9,-,N/A,,Clear,170,2013-07-06 09:32:00
4:53 AM,71.6,59.0,64,29.86,10.0,South,6.9,-,N/A,,Scattered Clouds,170,2013-07-06 09:53:00
5:12 AM,71.6,59.0,64,29.87,10.0,South,8.1,-,N/A,,Mostly Cloudy,170,2013-07-06 10:12:00
5:32 AM,71.6,59.0,64,29.87,10.0,South,5.8,-,N/A,,Scattered Clouds,170,2013-07-06 10:32:00
5:53 AM,73.4,59.0,61,29.87,10.0,South,10.4,-,N/A,,Scattered Clouds,170,2013-07-06 10:53:00
6:12 AM,73.4,59.0,61,29.87,10.0,South,10.4,-,N/A,,Clear,170,2013-07-06 11:12:00
6:32 AM,73.4,59.0,61,29.87,10.0,South,6.9,-,N/A,,Scattered Clouds,180,2013-07-06 11:32:00
6:53 AM,73.4,59.0,61,29.87,10.0,South,10.4,-,N/A,,Scattered Clouds,170,2013-07-06 11:53:00
7:12 AM,73.4,59.0,61,29.87,10.0,South,10.4,16.1,N/A,,Scattered Clouds,170,2013-07-06 12:12:00
7:32 AM,73.4,60.8,65,29.87,10.0,South,11.5,-,N/A,,Clear,170,2013-07-06 12:32:00
7:53 AM,73.4,60.8,65,29.87,10.0,South,10.4,-,N/A,,Clear,170,2013-07-06 12:53:00
8:12 AM,73.4,60.8,65,29.87,10.0,South,8.1,-,N/A,,Clear,170,2013-07-06 13:12:00
8:32 AM,73.4,60.8,65,29.87,10.0,SSE,8.1,-,N/A,,Clear,160,2013-07-06 13:32:00
8:53 AM,73.4,60.8,65,29.87,10.0,South,9.2,-,N/A,,Clear,170,2013-07-06 13:53:00
9:12 AM,73.4,60.8,65,29.87,10.0,South,10.4,-,N/A,,Clear,170,2013-07-06 14:12:00
9:32 AM,75.2,60.8,61,29.86,10.0,South,12.7,-,N/A,,Clear,180,2013-07-06 14:32:00
9:53 AM,77.0,60.8,57,29.86,10.0,South,12.7,21.9,N/A,,Clear,180,2013-07-06 14:53:00
10:12 AM,80.6,60.8,51,29.86,10.0,South,16.1,-,N/A,,Clear,190,2013-07-06 15:12:00
10:32 AM,80.6,60.8,51,29.85,10.0,South,15.0,24.2,N/A,,Clear,180,2013-07-06 15:32:00
10:53 AM,80.6,62.6,54,29.84,10.0,SSE,10.4,19.6,N/A,,Clear,160,2013-07-06 15:53:00
11:12 AM,80.6,60.8,51,29.85,10.0,South,11.5,21.9,N/A,,Clear,170,2013-07-06 16:12:00
11:32 AM,80.6,62.6,54,29.84,10.0,SSE,15.0,20.7,N/A,,Clear,160,2013-07-06 16:32:00
11:53 AM,80.6,62.6,54,29.85,10.0,SSE,15.0,20.7,N/A,,Clear,160,2013-07-06 16:53:00
12:13 PM,80.6,62.6,54,29.85,10.0,South,15.0,23.0,N/A,,Clear,180,2013-07-06 17:13:00
12:32 PM,82.4,62.6,51,29.84,10.0,SSE,12.7,20.7,N/A,,Clear,160,2013-07-06 17:32:00
12:53 PM,84.2,64.4,51,29.84,10.0,SSE,10.4,20.7,N/A,,Clear,160,2013-07-06 17:53:00
1:13 PM,84.2,64.4,51,29.83,10.0,South,12.7,19.6,N/A,,Clear,180,2013-07-06 18:13:00
1:32 PM,87.8,62.6,43,29.83,10.0,SSE,16.1,23.0,N/A,,Clear,160,2013-07-06 18:32:00
1:53 PM,87.8,62.6,43,29.82,10.0,SSE,18.4,24.2,N/A,,Clear,160,2013-07-06 18:53:00
2:13 PM,87.8,62.6,43,29.82,10.0,South,11.5,23.0,N/A,,Clear,170,2013-07-06 19:13:00
2:32 PM,87.8,64.4,46,29.82,10.0,SSE,13.8,24.2,N/A,,Clear,160,2013-07-06 19:32:00
2:53 PM,87.8,64.4,46,29.82,10.0,SSE,9.2,-,N/A,,Clear,160,2013-07-06 19:53:00
3:13 PM,87.8,64.4,46,29.82,10.0,South,10.4,19.6,N/A,,Clear,170,2013-07-06 20:13:00
3:32 PM,89.6,62.6,40,29.82,10.0,South,13.8,-,N/A,,Clear,170,2013-07-06 20:32:00
3:53 PM,89.6,62.6,40,29.82,10.0,South,13.8,20.7,N/A,,Clear,170,2013-07-06 20:53:00
4:13 PM,87.8,64.4,46,29.83,10.0,SSE,8.1,-,N/A,,Clear,160,2013-07-06 21:13:00
4:32 PM,87.8,64.4,46,29.82,10.0,SSE,12.7,17.3,N/A,,Clear,160,2013-07-06 21:32:00
4:53 PM,87.8,64.4,46,29.82,10.0,SSE,10.4,16.1,N/A,,Clear,160,2013-07-06 21:53:00
5:13 PM,87.8,64.4,46,29.82,10.0,SSE,9.2,-,N/A,,Clear,160,2013-07-06 22:13:00
5:32 PM,87.8,64.4,46,29.82,10.0,SSE,8.1,-,N/A,,Clear,160,2013-07-06 22:32:00
5:53 PM,86.0,64.4,48,29.81,10.0,South,5.8,-,N/A,,Clear,170,2013-07-06 22:53:00
6:13 PM,86.0,64.4,48,29.81,10.0,SSE,5.8,-,N/A,,Clear,160,2013-07-06 23:13:00
6:32 PM,86.0,64.4,48,29.81,10.0,South,4.6,-,N/A,,Clear,170,2013-07-06 23:32:00
6:53 PM,84.2,64.4,51,29.81,10.0,SSE,5.8,-,N/A,,Clear,160,2013-07-06 23:53:00
7:13 PM,84.2,64.4,51,29.81,10.0,South,4.6,-,N/A,,Clear,170,2013-07-07 00:13:00
7:32 PM,84.2,64.4,51,29.81,10.0,SSE,4.6,-,N/A,,Clear,160,2013-07-07 00:32:00
7:53 PM,84.2,64.4,51,29.82,10.0,South,4.6,-,N/A,,Clear,170,2013-07-07 00:53:00
8:12 PM,82.4,64.4,54,29.82,10.0,South,5.8,-,N/A,,Clear,190,2013-07-07 01:12:00
8:32 PM,82.4,64.4,54,29.82,10.0,South,5.8,-,N/A,,Clear,190,2013-07-07 01:32:00
8:52 PM,82.4,66.2,58,29.83,10.0,South,6.9,-,N/A,,Clear,190,2013-07-07 01:52:00
9:12 PM,80.6,66.2,61,29.84,10.0,Calm,Calm,-,N/A,,Clear,0,2013-07-07 02:12:00
9:33 PM,80.6,66.2,61,29.84,10.0,South,3.5,-,N/A,,Clear,170,2013-07-07 02:33:00
9:52 PM,80.6,66.2,61,29.85,10.0,Calm,Calm,-,N/A,,Clear,0,2013-07-07 02:52:00
10:12 PM,78.8,66.2,65,29.85,10.0,SSE,3.5,-,N/A,,Clear,160,2013-07-07 03:12:00
10:33 PM,78.8,66.2,65,29.86,10.0,SE,3.5,-,N/A,,Clear,140,2013-07-07 03:33:00
10:52 PM,77.0,66.2,69,29.85,10.0,SSE,4.6,-,N/A,,Clear,150,2013-07-07 03:52:00
11:12 PM,77.0,66.2,69,29.86,10.0,SSE,4.6,-,N/A,,Clear,150,2013-07-07 04:12:00
11:33 PM,77.0,66.2,69,29.86,10.0,SSE,3.5,-,N/A,,Clear,160,2013-07-07 04:33:00
11:52 PM,75.2,66.2,73,29.86,10.0,Calm,Calm,-,N/A,,Clear,0,2013-07-07 04:52:00